Brooksville, FL

8:27 AM EDT on May 27, 2017 (GMT -0400)
Hernando County

Weather History for KBKV - February, 2013

Change the Weather History Date:

Sunday, February 24, 2013

  Actual Average Record
Temperature  
Mean Temperature 72 °F -  
Max Temperature 75 °F 72 °F 86 °F (2012)
Min Temperature 68 °F 48 °F 33 °F (1999)
Cooling Degree Days 6    
Growing Degree Days 22 (Base 50)    
Moisture  
Dew Point 69 °F    
Average Humidity 93    
Maximum Humidity 100    
Minimum Humidity 84    
Precipitation  
Precipitation 0.11 in - - ()
Sea Level Pressure  
Sea Level Pressure 29.95 in    
Wind  
Wind Speed 5 mph (WSW)    
Max Wind Speed 13 mph    
Max Gust Speed -    
Visibility 8 miles    
Events Rain    
Averages and records for this station are not official NWS values.
T = Trace of Precipitation, MM = Missing Value Source: NWS Daily Summary

Daily Weather History Graph

Daily Weather History Graph

Search for Another Location

Airport or City:

Trip Planner

Search our weather history database for the weather conditions in past years. The results will help you decide how hot, cold, wet, or windy it might be!

Date:

Astronomy

Feb. 24, 2013 Rise Set
Actual Time 6:59 AM EST 6:26 PM EST
Civil Twilight 6:35 AM EST 6:50 PM EST
Nautical Twilight 6:08 AM EST 7:18 PM EST
Astronomical Twilight 5:41 AM EST 7:45 PM EST
Moon 5:36 PM EST (2/24) 5:54 AM EST (2/24)
Length of Visible Light 12h 14m
Length of Day
11h 27m
Waxing Gibbous, 99% of the Moon is Illuminated
Feb 24
Waxing Gibbous
Feb 25
Full
Mar 4
Last Quarter
Mar 11
New
Mar 19
First Quarter

Hourly Weather History & Observations

Time (EST) Temp. Dew Point Humidity Pressure Visibility Wind Dir Wind Speed Gust Speed Precip Events Conditions
12:53 AM 69.1 °F 68.0 °F 96% 29.94 in 4.0 mi South 5.8 mph - N/A   Overcast
1:44 AM 69.8 °F 66.2 °F 88% 29.93 in 4.0 mi South 6.9 mph - N/A   Scattered Clouds
1:53 AM 68.0 °F 66.9 °F 96% 29.92 in 4.0 mi South 6.9 mph - N/A   Mostly Cloudy
2:53 AM 70.0 °F 68.0 °F 93% 29.90 in 5.0 mi South 10.4 mph - N/A   Overcast
3:53 AM 71.1 °F 69.1 °F 93% 29.91 in 7.0 mi SSW 8.1 mph - N/A   Overcast
4:53 AM 71.1 °F 69.1 °F 93% 29.91 in 8.0 mi SSW 4.6 mph - N/A   Overcast
5:53 AM 71.1 °F 69.1 °F 93% 29.92 in 7.0 mi SSW 5.8 mph - N/A   Overcast
7:53 AM 72.0 °F 70.0 °F 93% 29.96 in 10.0 mi WSW 6.9 mph - N/A   Overcast
8:53 AM 72.0 °F 70.0 °F 93% 29.97 in 9.0 mi West 6.9 mph - 0.00 in Rain Light Rain
9:43 AM 73.4 °F 69.8 °F 88% 29.99 in 10.0 mi WNW 12.7 mph - 0.00 in   Overcast
9:53 AM 72.0 °F 70.0 °F 93% 29.99 in 7.0 mi WNW 8.1 mph - 0.01 in Rain Light Rain
10:06 AM 71.6 °F 69.8 °F 94% 29.99 in 10.0 mi West 8.1 mph - 0.00 in Rain Light Rain
10:14 AM 71.6 °F 69.8 °F 94% 29.99 in 10.0 mi WNW 6.9 mph - 0.00 in   Overcast
10:27 AM 71.6 °F 69.8 °F 94% 29.98 in 10.0 mi West 8.1 mph - 0.00 in   Mostly Cloudy
10:39 AM 71.6 °F 69.8 °F 94% 29.99 in 10.0 mi WNW 5.8 mph - 0.00 in   Overcast
10:53 AM 71.1 °F 69.1 °F 93% 29.99 in 10.0 mi West 5.8 mph - 0.00 in   Overcast
11:53 AM 71.1 °F 69.1 °F 93% 29.99 in 10.0 mi NW 4.6 mph - N/A   Overcast
12:41 PM 73.4 °F 69.8 °F 88% 29.99 in 10.0 mi West 3.5 mph - N/A   Overcast
12:53 PM 73.0 °F 69.1 °F 87% 29.98 in 10.0 mi Calm Calm - N/A   Overcast
1:30 PM 71.6 °F 69.8 °F 94% 29.97 in 7.0 mi WNW 3.5 mph - 0.01 in Rain Light Rain
1:53 PM 72.0 °F 69.1 °F 91% 29.97 in 8.0 mi West 3.5 mph - 0.02 in Rain Light Rain
2:53 PM 72.0 °F 69.1 °F 91% 29.94 in 6.0 mi Calm Calm - 0.07 in Rain Light Rain
3:28 PM 71.6 °F 69.8 °F 94% 29.94 in 10.0 mi Calm Calm - 0.01 in Rain Light Rain
3:53 PM 73.0 °F 69.1 °F 87% 29.93 in 10.0 mi Calm Calm - 0.01 in   Mostly Cloudy
4:53 PM 75.0 °F 70.0 °F 84% 29.93 in 10.0 mi Calm Calm - N/A   Partly Cloudy
5:53 PM 73.9 °F 70.0 °F 87% 29.92 in 10.0 mi Calm Calm - N/A   Clear
6:38 PM 71.6 °F 69.8 °F 94% 29.94 in 10.0 mi Calm Calm - N/A   Mostly Cloudy
6:53 PM 72.0 °F 70.0 °F 93% 29.95 in 10.0 mi Calm Calm - N/A   Overcast
7:38 PM 71.6 °F 69.8 °F 94% 29.96 in 9.0 mi ENE 3.5 mph - N/A   Overcast
7:53 PM 72.0 °F 70.0 °F 93% 29.96 in 6.0 mi Calm Calm - N/A   Mostly Cloudy
8:00 PM 71.6 °F 69.8 °F 94% 29.96 in 6.0 mi ENE 3.5 mph - N/A   Scattered Clouds
8:39 PM 71.6 °F 69.8 °F 94% 29.96 in 7.0 mi ENE 3.5 mph - N/A   Mostly Cloudy
8:53 PM 71.1 °F 70.0 °F 96% 29.96 in 9.0 mi Calm Calm - N/A   Overcast
9:43 PM 71.6 °F 69.8 °F 94% 29.97 in 9.0 mi Calm Calm - N/A   Mostly Cloudy
9:53 PM 71.1 °F 69.1 °F 93% 29.96 in 9.0 mi Calm Calm - N/A   Mostly Cloudy
10:53 PM 70.0 °F 69.1 °F 97% 29.94 in 9.0 mi ESE 4.6 mph - N/A   Mostly Cloudy
11:14 PM 71.6 °F 69.8 °F 94% 29.95 in 9.0 mi East 4.6 mph - N/A   Overcast
11:23 PM 71.6 °F 69.8 °F 94% 29.96 in 9.0 mi East 8.1 mph - N/A   Overcast
11:39 PM 69.8 °F 69.8 °F 100% 29.94 in 7.0 mi East 6.9 mph - N/A   Overcast
11:53 PM 70.0 °F 69.1 °F 97% 29.93 in 6.0 mi East 5.8 mph - N/A   Overcast